15min,AgWx,beryljct,423,29JUL2020:00:00:00,64.9,12.86,67.2,65.2,62.0,65.2,58.7,38,53,27,0.574,35.7,42.4,30.5,0.745,1.8,195,41,3.0,-0.00006,-0.00005,71.3,72.9,10,0,.,.,13.47,0.00,0.00
15min,AgWx,beryljct,423,29JUL2020:00:15:00,63.8,12.86,60.8,60.6,61.8,66.2,58.5,43,56,26,0.755,38.6,43.3,29.9,0,0.5,337,44,2.4,-0.00031,-0.00045,71.0,72.8,10,0,.,.,13.47,0.00,0.00
15min,AgWx,beryljct,423,29JUL2020:00:30:00,62.6,12.86,61.6,62.3,59.8,62.6,57.5,46,58,32,0.635,38.5,43.5,32.1,0.833,1.0,46,36,2.9,-0.00022,-0.00031,70.7,72.7,10,0,.,.,13.47,0.00,0.00
15min,AgWx,beryljct,423,29JUL2020:00:45:00,61.7,12.86,62.8,61.5,60.7,63.0,59.1,41,49,32,0.647,36.6,40.5,32.8,0.636,0.2,135,7.1,1.5,-0.00037,-0.00057,70.4,72.6,10,0,.,.,13.47,0.00,0.00
15min,AgWx,beryljct,423,29JUL2020:01:00:00,61.2,12.82,60.2,59.6,61.2,65.4,57.3,39,54,23,0.695,35.1,41.7,26.9,1.732,2.0,231,32,3.4,-0.00004,-0.00001,70.1,72.5,10,0,.,.,13.48,0.00,0.00
15min,AgWx,beryljct,423,29JUL2020:01:15:00,60.7,12.84,57.4,56.6,59.2,61.6,56.2,39,50,28,0.688,33.6,38.6,25.5,3.288,1.9,187,7.4,3.6,-0.00006,-0.00004,69.9,72.4,9,0,.,.,13.48,0.00,0.00
15min,AgWx,beryljct,423,29JUL2020:01:30:00,60.0,12.83,59.3,58.8,57.3,58.8,56.3,41,46,36,0.613,34.0,36.4,31.6,2.587,2.9,214,11,4.5,0.00006,0.00013,69.6,72.3,10,0,.,.,13.48,0.00,0.00
15min,AgWx,beryljct,423,29JUL2020:01:45:00,59.5,12.82,53.6,55.2,58.1,62.2,54.7,38,49,25,0.696,32.0,36.8,26.0,3.266,3.0,179,19,3.8,0.00009,0.00017,69.3,72.2,10,0,.,.,13.48,0.01,0.00
15min,AgWx,beryljct,423,29JUL2020:02:00:00,58.7,12.8,58.2,59.5,56.6,61.1,53.1,39,55,22,0.535,31.0,37.3,22.1,2.916,3.2,197,9.4,4.1,0.00011,0.00020,69.0,72.1,10,0,.,.,13.48,0.00,0.00
15min,AgWx,beryljct,423,29JUL2020:02:15:00,58.1,12.81,54.2,54.1,55.9,59.2,53.8,35,43,27,0.577,28.6,34.0,22.7,3.595,3.3,194,5.9,4.8,0.00014,0.00023,68.8,72.0,10,0,.,.,13.48,0.00,0.00
15min,AgWx,beryljct,423,29JUL2020:02:30:00,57.4,12.79,61.2,59.4,56.9,59.4,54.1,34,48,23,0.449,28.3,35.8,21.8,3.113,2.1,194,16,3.4,-0.00002,0.00002,68.5,71.9,10,0,.,.,13.48,0.00,0.00
15min,AgWx,beryljct,423,29JUL2020:02:45:00,57.1,12.79,52.2,52.1,56.0,61.7,51.8,46,62,21,0.777,34.0,40.1,21.6,0.482,1.5,229,67,3.4,-0.00012,-0.00014,68.3,71.7,10,0,.,.,13.48,0.00,0.00
15min,AgWx,beryljct,423,29JUL2020:03:00:00,56.4,12.78,51.1,53.1,53.4,54.8,51.8,52,61,45,0.728,36.1,39.1,33.9,1.688,0.4,46,42,2.2,-0.00030,-0.00046,68.0,71.6,9,0,.,.,13.48,0.00,0.00
15min,AgWx,beryljct,423,29JUL2020:03:15:00,55.8,12.78,54.6,54.6,54.4,56.8,52.4,39,55,26,0.666,29.5,36.9,22.5,1.732,1.4,209,57,2.8,-0.00013,-0.00016,67.7,71.5,10,0,.,.,13.49,0.00,0.00
15min,AgWx,beryljct,423,29JUL2020:03:30:00,55.4,12.77,51.1,50.9,54.1,57.3,50.7,42,57,28,0.606,31.1,36.5,23.8,3.573,2.9,174,24,6.1,0.00006,0.00012,67.4,71.4,10,0,.,.,13.49,0.00,0.00
15min,AgWx,beryljct,423,29JUL2020:03:45:00,54.6,12.76,55.6,56.2,52.2,56.3,50.0,42,56,28,0.530,29.7,35.0,23.8,2.324,3.3,221,19,5.2,0.00009,0.00016,67.2,71.2,10,0,.,.,13.49,0.00,0.00
15min,AgWx,beryljct,423,29JUL2020:04:00:00,54.1,12.74,54.4,53.1,55.0,58.1,51.7,43,61,27,0.725,31.9,38.7,23.3,1.841,0.9,272,27,4.7,-0.00022,-0.00030,66.9,71.1,10,0,.,.,13.49,0.00,0.00
15min,AgWx,beryljct,423,29JUL2020:04:15:00,53.7,12.74,47.8,47.1,50.1,53.9,47.1,54,61,49,0.589,33.9,37.2,31.1,3.442,3.2,336,13,5.8,0.00002,0.00006,66.7,71.0,10,0,.,.,13.49,0.00,0.00
15min,AgWx,beryljct,423,29JUL2020:04:30:00,52.8,12.73,51.7,51.3,49.0,51.3,47.2,41,52,30,0.388,26.1,30.5,21.0,2.411,1.4,330,7.1,3.6,-0.00012,-0.00014,66.5,70.9,10,0,.,.,13.49,0.00,0.00
15min,AgWx,beryljct,423,29JUL2020:04:45:00,52.4,12.73,49.1,49.6,50.9,52.5,49.6,36,47,30,0.543,24.9,30.4,20.6,3.157,3.4,349,14,5.8,0.00013,0.00021,66.2,70.8,10,0,.,.,13.49,0.00,0.00
15min,AgWx,beryljct,423,29JUL2020:05:00:00,51.8,12.71,50.0,49.3,48.5,50.1,47.1,48,57,38,0.553,29.6,33.2,25.5,2.74,2.7,312,24,4.6,0.00034,0.00059,66.0,70.6,9,0,.,.,13.49,0.00,0.00
15min,AgWx,beryljct,423,29JUL2020:05:15:00,51.5,12.71,54.5,53.4,51.5,53.4,49.4,38,46,31,0.440,26.3,30.6,22.7,3.398,3.3,288,20,4.2,0.00049,0.00086,65.8,70.5,10,0,.,.,13.48,0.00,0.00
15min,AgWx,beryljct,423,29JUL2020:05:30:00,51.8,12.71,50.3,50.8,53.3,54.8,50.8,36,48,28,0.610,26.5,32.1,22.1,2.653,3.5,303,13,4.8,0.00057,0.00100,65.5,70.4,10,1,.,.,13.49,0.00,0.00
15min,AgWx,beryljct,423,29JUL2020:05:45:00,51.7,12.72,52.3,52.9,51.3,53.5,49.7,46,52,39,0.595,30.9,33.1,28.9,3.749,3.5,267,11,5.4,0.00050,0.00085,65.3,70.2,10,8,.,.,13.48,0.00,0.00
15min,AgWx,beryljct,423,29JUL2020:06:00:00,51.7,12.72,53.3,51.0,50.2,52.7,49.1,53,56,44,0.660,33.7,35.4,31.4,3.332,3.4,255,6.9,4.3,0.00057,0.00087,65.1,70.1,10,37,.,.,13.49,0.01,0.00
15min,AgWx,beryljct,423,29JUL2020:06:15:00,52.5,12.72,56.8,56.5,54.7,57.3,51.2,44,52,35,0.655,32.9,35.2,29.9,3.793,3.8,257,8.7,5.2,0.00089,0.00132,64.8,70.0,10,73,.,.,13.49,0.00,0.00
15min,AgWx,beryljct,423,29JUL2020:06:30:00,54.4,12.7,56.8,55.0,56.6,58.0,54.7,53,69,41,0.954,39.4,44.9,33.3,0.022,1.6,274,9.9,3.9,0.00079,0.00100,64.6,69.9,10,113,.,.,13.48,0.00,0.00
15min,AgWx,beryljct,423,29JUL2020:06:45:00,56.2,12.73,54.4,54.3,54.6,58.7,52.7,40,62,34,0.587,30.8,42.7,26.4,4.384,5.0,354,10,7.2,0.00138,0.00195,64.4,69.8,10,157,.,.,13.48,0.00,0.00
15min,AgWx,beryljct,423,29JUL2020:07:00:00,57.7,12.73,58.1,57.5,55.9,57.5,54.2,43,47,40,0.756,33.9,37.3,31.0,4.604,4.8,336,9.7,5.7,0.00157,0.00213,64.2,69.6,10,203,.,.,13.48,0.00,0.00
15min,AgWx,beryljct,423,29JUL2020:07:15:00,60.0,12.73,60.3,60.4,59.9,60.9,57.6,41,50,35,0.785,36.3,40.1,33.0,4.384,4.7,323,5.8,6.7,0.00192,0.00254,64.0,69.5,10,252,.,.,13.48,0.00,0.00
15min,AgWx,beryljct,423,29JUL2020:07:30:00,62.4,12.74,63.5,63.1,61.6,63.1,60.3,39,46,34,0.718,36.5,39.4,34.2,2.872,3.5,334,7.3,5.7,0.00212,0.00267,63.8,69.3,10,302,.,.,13.48,0.00,0.00
15min,AgWx,beryljct,423,29JUL2020:07:45:00,65.2,12.8,66.5,65.9,64.4,65.9,63.1,32,39,24,0.562,34.0,38.7,28.0,2.061,2.3,341,7.7,3.1,0.00237,0.00285,63.7,69.2,9,353,.,.,13.47,0.00,0.00
15min,AgWx,beryljct,423,29JUL2020:08:00:00,68.1,12.92,67.5,68.0,67.0,68.0,66.0,26,33,22,0.645,31.0,37.0,27.4,2.039,2.1,354,12,2.8,0.00275,0.00327,63.6,69.1,10,405,.,.,13.47,0.00,0.00
15min,AgWx,beryljct,423,29JUL2020:08:15:00,70.9,13.07,69.9,69.9,68.8,69.9,67.6,27,34,23,0.763,33.8,38.4,29.8,3.705,2.8,339,8.0,4.1,0.00321,0.00385,63.6,69.0,10,456,.,.,13.46,0.00,0.00
15min,AgWx,beryljct,423,29JUL2020:08:30:00,73.2,13.29,72.9,72.4,70.7,72.4,69.9,28,33,22,0.655,35.5,40.3,31.2,2.981,3.7,340,9.6,4.9,0.00372,0.00455,63.6,68.8,10,506,.,.,13.46,0.00,0.00
15min,AgWx,beryljct,423,29JUL2020:08:45:00,75.3,13.51,73.9,74.3,73.1,74.3,72.3,24,30,19,0.568,34.4,40.1,28.9,3.793,4.0,345,10,5.3,0.00419,0.00513,63.6,68.7,9,555,.,.,13.45,0.00,0.00
15min,AgWx,beryljct,423,29JUL2020:09:00:00,77.4,13.59,75.0,75.4,74.5,75.5,73.7,21,27,18,0.669,31.8,38.1,28.1,2.083,2.9,1.9,17,4.5,0.00441,0.00524,63.7,68.6,9,603,.,.,13.45,0.00,0.00
15min,AgWx,beryljct,423,29JUL2020:09:15:00,79.6,13.7,77.7,76.1,75.4,76.5,74.5,24,37,18,0.766,35.7,46.6,29.4,2.74,2.5,15,22,4.1,0.00463,0.00539,63.9,68.5,9,644,.,.,13.45,0.00,0.00
15min,AgWx,beryljct,423,29JUL2020:09:30:00,81.7,13.95,76.4,77.0,76.2,77.2,75.7,23,32,17,0.905,35.3,44.0,27.8,0.658,1.7,59,47,3.6,0.00487,0.00551,64.1,.,.,693,.,.,13.44,0.00,0.00
15min,AgWx,beryljct,423,29JUL2020:09:45:00,83.8,13.92,76.9,76.6,77.2,79.3,76.3,24,34,18,0.980,37.2,46.4,30.7,3.179,1.2,83,24,3.2,0.00507,0.00563,64.0,.,.,727,.,.,13.44,0.00,0.00
15min,AgWx,beryljct,423,29JUL2020:10:00:00,85.1,13.84,77.4,77.4,77.0,77.4,76.7,32,41,26,0.992,44.7,51.9,39.7,2.411,2.9,129,9.5,4.7,0.00561,0.00644,64.6,.,.,776,.,.,13.44,0.00,0.00
15min,AgWx,beryljct,423,29JUL2020:10:15:00,85.8,13.83,78.5,78.7,78.1,78.8,77.5,31,39,23,0.937,44.6,50.8,37.8,3.091,3.3,122,15,4.5,0.00596,0.00688,65.1,.,.,813,.,.,13.44,0.00,0.00
15min,AgWx,beryljct,423,29JUL2020:10:30:00,86.5,13.9,79.9,79.9,79.4,80.0,78.7,30,42,22,0.865,45.3,54.4,36.9,4.494,3.2,109,9.3,4.8,0.00625,0.00719,65.7,68.0,9,847,.,.,13.44,0.00,0.00
15min,AgWx,beryljct,423,29JUL2020:10:45:00,87.4,13.8,81.8,82.1,81.1,82.3,79.9,26,35,18,0.769,42.4,49.9,33.6,1.096,1.9,98,13,3.9,0.00638,0.00716,66.4,68.0,9,878,.,.,13.44,0.00,0.00
15min,AgWx,beryljct,423,29JUL2020:11:00:00,89.1,13.79,82.7,82.7,82.7,83.5,82.1,24,38,16,0.845,42.2,54.4,32.0,3.157,1.4,104,22,3.2,0.00656,0.00726,67.1,68.0,9,906,.,.,13.44,0.00,0.00
15min,AgWx,beryljct,423,29JUL2020:11:15:00,90.3,13.74,83.8,84.2,83.7,84.7,82.7,24,33,15,0.851,42.5,51.9,32.4,3.946,3.0,120,28,4.9,0.00703,0.00807,67.8,68.0,9,931,.,.,13.44,0.00,0.00
15min,AgWx,beryljct,423,29JUL2020:11:30:00,90.9,13.82,85.3,85.8,84.6,85.8,83.9,25,35,16,0.898,44.9,53.2,34.2,3.486,3.1,55,10,4.3,0.00724,0.00830,68.6,68.0,9,953,.,.,13.44,0.00,0.00
15min,AgWx,beryljct,423,29JUL2020:11:45:00,91.9,13.72,86.2,86.5,86.2,87.1,85.7,21,31,13,0.722,40.9,51.9,30.5,3.266,3.0,62,24,4.3,0.00741,0.00852,69.4,68.0,9,968,.,.,13.44,0.00,0.00
15min,AgWx,beryljct,423,29JUL2020:12:00:00,92.7,13.29,86.6,86.6,86.4,87.0,85.9,24,36,14,0.905,44.7,56.0,32.6,2.521,3.8,71,16,7.8,0.00762,0.00885,70.2,68.1,10,981,.,.,13.44,0.00,0.00
15min,AgWx,beryljct,423,29JUL2020:12:15:00,93.1,13.31,86.9,86.8,86.8,87.8,86.1,25,32,16,1.146,46.1,53.4,36.6,3.88,5.1,94,32,8.9,0.00788,0.00935,71.0,68.1,10,989,.,.,13.44,0.00,0.00
15min,AgWx,beryljct,423,29JUL2020:12:30:00,92.9,13.29,90.3,90.0,87.9,90.0,86.2,19,31,12,0.732,40.6,52.5,29.0,10.98,9.2,135,59,19.9,0.00862,0.01091,71.9,68.2,9,993,.,.,13.44,0.00,0.00
15min,AgWx,beryljct,423,29JUL2020:12:45:00,92.7,13.33,90.3,90.8,89.5,90.9,88.6,18,21,12,0.807,39.6,44.6,30.1,13.42,9.5,207,16,14.5,0.00888,0.01132,72.7,68.3,10,1000,.,.,13.44,0.00,0.00
15min,AgWx,beryljct,423,29JUL2020:13:00:00,93.1,13.31,88.0,89.2,90.0,90.9,89.2,15,20,9.8,0.803,35.5,43.5,25.7,10.68,9.1,186,24,14.9,0.00892,0.01137,73.5,68.4,9,1002,.,.,13.44,0.00,0.00
15min,AgWx,beryljct,423,29JUL2020:13:15:00,93.4,13.3,90.3,89.9,89.8,91.3,88.8,14,19,8.4,0.683,34.6,42.9,22.3,6.686,8.1,221,31,13.9,0.00870,0.01096,74.2,68.6,10,996,.,.,13.44,0.00,0.00
15min,AgWx,beryljct,423,29JUL2020:13:30:00,93.5,13.43,91.9,89.8,89.7,91.1,88.2,15,22,9.6,0.637,36.0,46.0,25.7,4.077,9.0,170,28,16.9,0.00876,0.01117,74.9,68.7,9,986,.,.,13.44,0.00,0.00
15min,AgWx,beryljct,423,29JUL2020:13:45:00,93.7,13.3,89.1,90.5,90.7,92.0,89.8,14,21,8.0,0.738,34.3,44.3,21.5,1.71,8.7,193,39,16.3,0.00872,0.01112,75.5,68.9,9,975,.,.,13.44,0.00,0.00
15min,AgWx,beryljct,423,29JUL2020:14:00:00,94.0,13.26,89.5,90.6,91.1,92.2,90.2,13,16,9.6,0.545,32.6,39.1,26.3,8.72,9.8,184,24,16.8,0.00881,0.01142,76.2,69.1,10,957,.,.,13.44,0.00,0.00
15min,AgWx,beryljct,423,29JUL2020:14:15:00,93.9,13.28,91.2,89.8,89.0,91.4,87.5,17,26,8.2,0.789,38.0,48.5,22.5,7.848,9.4,151,24,22.7,0.00838,0.01077,76.8,69.3,10,936,.,.,13.44,0.00,0.00
15min,AgWx,beryljct,423,29JUL2020:14:30:00,93.8,13.22,91.2,92.0,90.7,92.0,89.1,14,23,9.3,0.551,35.3,47.7,25.1,7.234,7.8,196,26,17.0,0.00811,0.01029,77.4,69.5,10,914,.,.,13.44,0.00,0.00
15min,AgWx,beryljct,423,29JUL2020:14:45:00,94.2,13.22,91.3,91.2,90.7,92.0,88.8,15,20,8.4,0.604,36.1,43.6,23.5,12.96,8.4,206,30,17.9,0.00800,0.01028,77.9,69.7,10,888,.,.,13.44,0.00,0.00
15min,AgWx,beryljct,423,29JUL2020:15:00:00,94.7,13.19,87.9,89.9,91.1,92.5,89.9,14,20,10,0.945,35.5,43.1,28.3,7.958,8.7,186,18,14.4,0.00791,0.01027,78.4,69.9,10,859,.,.,13.44,0.00,0.00
15min,AgWx,beryljct,423,29JUL2020:15:15:00,94.9,13.2,91.9,91.2,90.3,91.5,87.6,16,27,8.9,0.631,37.3,49.6,23.9,8.4,8.1,190,31,16.2,0.00747,0.00962,78.9,70.2,10,827,.,.,13.44,0.00,0.00
15min,AgWx,beryljct,423,29JUL2020:15:30:00,95.3,13.21,89.3,89.3,90.6,91.6,89.3,13,17,10,0.722,32.8,38.9,27.1,14.69,10.7,186,25,18.1,0.00756,0.01024,79.3,70.4,10,764,.,.,13.44,0.00,0.00
15min,AgWx,beryljct,423,29JUL2020:15:45:00,95.4,13.18,91.3,90.6,90.8,92.6,89.0,13,18,8.0,0.779,31.9,40.0,21.6,6.533,8.2,198,20,17.2,0.00690,0.00914,79.8,70.6,10,736,.,.,13.44,0.00,0.00
15min,AgWx,beryljct,423,29JUL2020:16:00:00,95.6,13.2,92.2,90.4,90.9,92.2,89.4,12,20,8.7,0.517,31.5,43.4,23.5,8.66,9.9,184,21,16.7,0.00710,0.00965,80.1,70.9,10,716,.,.,13.44,0.00,0.00
15min,AgWx,beryljct,423,29JUL2020:16:15:00,95.4,13.25,92.5,91.3,90.7,91.6,89.6,12,20,9.1,0.611,31.7,42.9,24.1,9.73,8.4,202,17,14.2,0.00647,0.00870,80.4,71.1,10,673,.,.,13.44,0.00,0.00
15min,AgWx,beryljct,423,29JUL2020:16:30:00,95.3,13.18,89.5,90.0,89.8,91.6,88.7,14,19,9.2,0.541,33.4,41.8,24.9,13.66,8.6,166,12,15.7,0.00598,0.00816,80.6,71.3,10,609,.,.,13.44,0.00,0.00
15min,AgWx,beryljct,423,29JUL2020:16:45:00,94.8,13.19,88.0,88.8,89.7,91.9,88.2,12,17,8.2,0.673,29.8,37.7,22.4,9.25,11.6,165,14,17.1,0.00646,0.00926,80.8,71.6,10,584,.,.,13.44,0.00,0.00
15min,AgWx,beryljct,423,29JUL2020:17:00:00,94.0,13.23,89.0,90.0,88.7,90.2,87.7,14,19,8.5,0.569,32.4,40.2,22.1,8.75,10.2,162,15,15.2,0.00575,0.00819,81.0,71.8,10,535,.,.,13.44,0.00,0.00
15min,AgWx,beryljct,423,29JUL2020:17:15:00,93.6,13.24,89.0,89.7,89.9,90.8,88.4,12,16,8.3,0.474,29.5,38.3,22.0,9.23,9.3,177,14,14.5,0.00529,0.00761,81.0,72.0,10,488,.,.,13.44,0.00,0.00
15min,AgWx,beryljct,423,29JUL2020:17:30:00,93.0,13.26,86.6,88.3,88.5,89.6,87.8,12,15,9.8,0.619,29.6,34.6,24.9,8,10.4,162,8.8,16.2,0.00511,0.00757,81.1,72.2,10,438,.,.,13.44,0.00,0.00
15min,AgWx,beryljct,423,29JUL2020:17:45:00,92.4,13.25,89.3,89.6,89.4,90.2,87.8,11,15,9.1,0.486,27.6,35.2,23.2,9.91,9.3,177,13,12.8,0.00455,0.00683,81.0,72.4,10,386,.,.,13.44,0.00,0.00
15min,AgWx,beryljct,423,29JUL2020:18:00:00,92.0,13.15,87.6,89.5,89.0,90.3,87.2,11,15,8.0,0.552,27.9,34.7,20.9,5.722,8.6,179,14,16.5,0.00402,0.00614,80.9,72.6,10,336,.,.,13.45,0.00,0.00
15min,AgWx,beryljct,423,29JUL2020:18:15:00,91.5,13.09,89.2,89.2,88.6,89.8,87.1,10,13,8.4,0.413,25.7,31.7,21.4,14.75,11.0,179,15,16.3,0.00418,0.00671,80.7,72.8,10,284,.,.,13.45,0.00,0.00
15min,AgWx,beryljct,423,29JUL2020:18:30:00,90.9,13.06,87.5,87.8,88.2,89.4,86.9,10,12,8.1,0.511,24.8,29.2,20.8,8.97,10.2,193,8.7,17.0,0.00366,0.00605,80.4,73.0,10,233,.,.,13.45,0.00,0.00
15min,AgWx,beryljct,423,29JUL2020:18:45:00,90.1,13.04,87.0,86.6,87.5,88.9,86.6,11,13,7.9,0.522,25.5,31.0,19.6,8.86,9.6,196,8.5,14.7,0.00310,0.00531,80.1,73.1,10,181,.,.,13.44,0.00,0.00
15min,AgWx,beryljct,423,29JUL2020:19:00:00,89.2,13.02,85.5,86.1,86.6,87.8,85.6,10,12,9.1,0.445,24.6,26.9,22.0,8.59,9.7,193,7.9,12.6,0.00196,0.00264,79.8,73.3,10,133,.,.,13.45,0.00,0.00
15min,AgWx,beryljct,423,29JUL2020:19:15:00,87.9,13.02,83.8,84.0,85.4,86.1,84.0,10,11,9.2,0.422,22.9,24.7,21.2,7.388,9.1,188,6.3,12.7,0.00172,0.00235,79.5,73.4,9,88,.,.,13.45,0.00,0.00
15min,AgWx,beryljct,423,29JUL2020:19:30:00,86.1,13.01,80.3,80.6,82.4,84.2,80.6,12,14,10,0.463,24.1,26.5,21.8,6.314,6.4,190,6.8,9.5,0.00113,0.00163,79.2,73.5,9,46,.,.,13.45,0.00,0.00
15min,AgWx,beryljct,423,29JUL2020:19:45:00,83.6,12.99,80.1,78.3,79.2,80.8,77.4,13,18,12,0.397,24.9,30.5,21.6,5.502,5.8,201,4.0,7.1,0.00086,0.00127,78.8,73.6,10,14,.,.,13.45,0.00,0.00
15min,AgWx,beryljct,423,29JUL2020:20:00:00,80.9,12.98,75.8,76.0,77.6,79.0,76.0,14,16,12,0.463,24.6,27.1,21.4,6.445,5.5,208,3.1,6.5,0.00075,0.00111,78.4,73.7,10,3,.,.,13.46,0.00,0.00
15min,AgWx,beryljct,423,29JUL2020:20:15:00,78.9,12.97,76.4,76.6,76.5,77.4,75.8,15,16,14,0.480,25.1,26.4,23.7,5.393,6.2,210,6.3,7.2,0.00084,0.00121,78.1,73.8,10,0,.,.,13.46,0.00,0.00
15min,AgWx,beryljct,423,29JUL2020:20:30:00,77.4,12.97,78.2,76.1,76.5,77.8,75.2,15,18,13,0.414,25.5,29.6,22.2,6.774,5.5,186,14,6.8,0.00072,0.00107,77.7,73.8,10,0,.,.,13.46,0.00,0.00
15min,AgWx,beryljct,423,29JUL2020:20:45:00,76.3,12.97,75.8,75.7,76.5,77.7,75.5,14,15,11,0.442,22.9,25.4,19.7,6.708,6.2,193,17,7.9,0.00085,0.00123,77.3,73.9,10,0,.,.,13.46,0.00,0.00
15min,AgWx,beryljct,423,29JUL2020:21:00:00,75.4,12.95,70.0,72.6,73.8,76.0,70.0,17,23,14,0.503,26.2,32.4,23.6,7.519,6.5,184,29,8.6,0.00081,0.00116,76.9,73.9,10,0,.,.,13.45,0.00,0.00
15min,AgWx,beryljct,423,29JUL2020:21:15:00,74.0,12.95,72.7,71.7,71.6,73.2,69.3,17,23,14,0.438,24.4,30.8,20.9,6.752,6.7,174,13,8.1,0.00081,0.00114,76.5,73.9,10,0,.,.,13.46,0.00,0.00
15min,AgWx,beryljct,423,29JUL2020:21:30:00,72.8,12.95,65.5,64.9,70.4,73.3,64.4,20,32,15,0.602,26.9,33.8,22.4,8.51,6.9,168,22,10.0,0.00079,0.00110,76.1,73.9,10,0,.,.,13.46,0.01,0.00
15min,AgWx,beryljct,423,29JUL2020:21:45:00,71.1,12.93,67.9,68.4,67.1,69.6,65.0,24,31,18,0.482,28.4,33.5,23.5,4.954,6.6,170,16,8.9,0.00067,0.00093,75.7,73.9,10,0,.,.,13.46,0.00,0.00
15min,AgWx,beryljct,423,29JUL2020:22:00:00,69.7,12.93,65.9,65.3,66.3,69.3,63.3,25,31,18,0.535,28.6,32.8,22.8,7.234,5.9,162,14,7.5,0.00058,0.00082,75.3,73.9,10,0,.,.,13.46,0.00,0.00
15min,AgWx,beryljct,423,29JUL2020:22:15:00,68.6,12.92,65.5,66.0,66.9,67.9,65.4,22,25,20,0.476,26.4,28.7,24.4,3.727,6.2,171,7.6,7.8,0.00065,0.00091,74.9,73.9,10,0,.,.,13.46,0.00,0.00
15min,AgWx,beryljct,423,29JUL2020:22:30:00,67.6,12.92,65.4,64.8,64.8,66.6,61.4,22,36,19,0.390,24.7,34.5,21.1,0.373,3.1,215,55,5.7,0.00020,0.00034,74.5,73.8,10,0,.,.,13.46,0.00,0.00
15min,AgWx,beryljct,423,29JUL2020:22:45:00,66.4,12.91,59.3,59.5,62.4,65.1,59.2,23,34,16,0.585,23.8,30.9,17.8,2.148,2.3,184,33,4.1,0.00005,0.00013,74.2,73.8,10,0,.,.,13.47,0.00,0.00
15min,AgWx,beryljct,423,29JUL2020:23:00:00,65.0,12.9,62.2,63.7,61.6,65.1,57.3,33,55,20,0.541,31.1,41.5,22.3,1.754,2.1,284,25,3.3,-0.00001,0.00004,73.9,73.7,10,0,.,.,13.47,0.00,0.00
15min,AgWx,beryljct,423,29JUL2020:23:15:00,64.0,12.9,62.0,61.5,60.9,63.4,58.7,36,48,24,0.640,33.1,38.9,25.9,2.587,1.3,332,25,3.1,-0.00016,-0.00019,73.5,73.7,10,0,.,.,13.46,0.00,0.00
15min,AgWx,beryljct,423,29JUL2020:23:30:00,62.9,12.88,58.7,58.7,60.4,62.6,57.8,37,50,27,0.721,34.0,39.6,27.7,0,0.9,350,1.0,2.7,-0.00023,-0.00032,73.2,73.6,10,0,.,.,13.47,0.00,0.00
15min,AgWx,bigpiney,439,29JUL2020:00:00:00,50.6,12.68,43.9,43.9,45.3,46.5,43.9,91,91,90,0.891,42.8,43.6,41.6,3.508,2.6,221,11,3.6,-0.00009,-0.00011,54.5,52.1,48,0,0,0.0,8.18,0.00,0.00
15min,AgWx,bigpiney,439,29JUL2020:00:15:00,49.9,12.67,43.6,43.5,43.5,44.0,43.3,93,93,91,0.894,41.5,41.8,41.3,2.543,3.2,228,16,4.0,-0.00008,-0.00010,54.5,52.1,48,0,0,0.0,8.18,0.00,0.00
15min,AgWx,bigpiney,439,29JUL2020:00:30:00,49.4,12.66,46.2,45.5,44.2,45.5,43.5,94,94,93,0.970,42.5,43.8,41.7,2.258,2.9,232,6.6,3.7,-0.00009,-0.00011,54.4,52.1,48,0,0,0.0,8.18,0.00,0.00
15min,AgWx,bigpiney,439,29JUL2020:00:45:00,49.0,12.66,45.3,45.1,45.3,45.9,44.8,92,94,91,0.936,43.0,44.0,42.5,1.096,2.7,215,15,3.9,-0.00009,-0.00011,54.4,52.2,48,0,0,0.0,8.18,0.00,0.00
15min,AgWx,bigpiney,439,29JUL2020:01:00:00,48.8,12.65,46.4,45.7,45.0,45.7,44.2,92,93,91,0.965,42.7,43.7,41.8,3.069,2.9,218,23,5.0,-0.00008,-0.00010,54.4,52.2,48,0,0,0.0,8.18,0.00,0.00
15min,AgWx,bigpiney,439,29JUL2020:01:15:00,48.8,12.65,46.8,47.1,47.5,48.5,45.9,90,92,87,0.991,44.6,45.4,43.8,2.653,2.4,282,42,5.0,-0.00009,-0.00011,54.3,52.1,48,0,0,0.0,8.18,0.00,0.00
15min,AgWx,bigpiney,439,29JUL2020:01:30:00,49.0,12.63,46.7,46.5,46.5,47.1,45.7,92,94,90,1.007,44.3,44.9,43.4,0.68,1.2,303,63,3.5,-0.00013,-0.00019,54.3,52.2,48,0,0,0.0,8.18,0.00,0.00
15min,AgWx,bigpiney,439,29JUL2020:01:45:00,48.9,12.63,47.5,47.3,47.2,47.7,46.6,93,94,91,1.019,45.3,45.9,44.7,4.669,2.7,287,24,4.7,-0.00010,-0.00012,54.2,52.1,48,0,0,0.0,8.18,0.00,0.00
15min,AgWx,bigpiney,439,29JUL2020:02:00:00,48.7,12.61,44.4,44.2,45.8,47.9,44.2,92,93,89,0.915,43.6,45.8,42.1,3.88,3.2,213,17,4.5,-0.00008,-0.00009,54.2,52.1,48,0,0,0.0,8.18,0.00,0.00
15min,AgWx,bigpiney,439,29JUL2020:02:15:00,48.4,12.61,43.6,43.4,43.8,44.3,43.3,93,94,93,0.896,41.9,42.3,41.5,2.28,3.3,207,5.2,4.7,-0.00008,-0.00010,54.1,52.2,48,0,0,0.0,8.18,0.00,0.00
15min,AgWx,bigpiney,439,29JUL2020:02:30:00,47.9,12.61,42.0,42.0,42.8,43.5,42.0,94,94,93,0.848,41.1,41.8,40.3,2.872,3.0,199,8.3,4.4,-0.00009,-0.00011,54.1,52.1,48,0,0,0.0,8.18,0.00,0.00
15min,AgWx,bigpiney,439,29JUL2020:02:45:00,47.4,12.6,42.8,43.0,42.2,43.2,41.6,95,95,94,0.891,40.8,41.9,39.9,2.477,3.2,223,28,4.4,-0.00008,-0.00010,54.0,52.1,48,0,1,0.0,8.18,0.00,0.00
15min,AgWx,bigpiney,439,29JUL2020:03:00:00,47.1,12.59,44.9,45.2,44.9,45.9,42.9,94,96,92,0.940,43.2,44.3,41.4,2.916,3.1,321,52,4.5,-0.00009,-0.00011,54.0,52.1,48,0,1,0.0,8.18,0.00,0.00
15min,AgWx,bigpiney,439,29JUL2020:03:15:00,47.0,12.57,45.9,45.9,45.7,46.5,44.8,92,94,91,0.979,43.6,44.3,42.7,2.126,2.2,6.5,13,3.2,-0.00010,-0.00013,53.9,52.2,48,0,1,0.0,8.18,0.00,0.00
15min,AgWx,bigpiney,439,29JUL2020:03:30:00,46.9,12.57,44.9,43.7,44.4,45.9,42.5,93,96,91,0.927,42.5,44.0,40.5,0,2.0,341,72,4.6,-0.00011,-0.00014,53.9,52.1,48,0,1,0.0,8.18,0.00,0.00
15min,AgWx,bigpiney,439,29JUL2020:03:45:00,46.6,12.56,42.1,44.2,45.1,45.9,43.8,95,96,92,0.902,43.7,44.5,41.9,2.674,0.7,330,31,3.3,-0.00015,-0.00023,53.8,52.1,48,0,1,0.0,8.18,0.00,0.00
15min,AgWx,bigpiney,439,29JUL2020:04:00:00,46.1,12.55,45.5,45.3,44.0,45.3,42.2,95,97,91,0.993,42.7,44.4,40.1,1.447,0.9,216,27,2.4,-0.00014,-0.00021,53.8,52.1,48,0,1,0.0,8.18,0.00,0.00
15min,AgWx,bigpiney,439,29JUL2020:04:15:00,45.7,12.54,46.5,46.2,44.6,46.2,43.9,95,96,93,0.998,43.2,45.0,41.9,3.814,3.0,277,19,5.1,-0.00009,-0.00012,53.7,52.1,48,0,1,0.0,8.18,0.00,0.00
15min,AgWx,bigpiney,439,29JUL2020:04:30:00,45.7,12.54,46.6,46.4,46.4,46.8,46.1,89,93,88,0.948,43.3,44.4,43.0,3.924,3.7,287,12,4.8,-0.00005,-0.00006,53.7,52.0,48,0,1,0.0,8.18,0.00,0.00
15min,AgWx,bigpiney,439,29JUL2020:04:45:00,46.0,12.52,47.6,47.5,47.0,47.5,46.4,88,89,87,0.973,43.7,44.1,43.2,4.143,3.8,294,11,4.9,-0.00005,-0.00005,53.6,52.0,48,0,1,0.0,8.18,0.00,0.00
15min,AgWx,bigpiney,439,29JUL2020:05:00:00,46.5,12.51,47.8,47.5,47.8,48.1,47.5,87,87,86,0.973,44.1,44.3,43.8,4.582,3.7,303,13,6.2,-0.00004,-0.00004,53.6,52.0,48,1,1,0.0,8.18,0.00,0.00
15min,AgWx,bigpiney,439,29JUL2020:05:15:00,46.9,12.51,48.2,48.2,48.1,48.5,47.5,86,88,85,0.977,44.1,44.3,43.9,3.617,4.2,285,8.2,6.2,-0.00002,-0.00001,53.5,52.1,48,3,0,0.0,8.18,0.00,0.00
15min,AgWx,bigpiney,439,29JUL2020:05:30:00,47.3,12.52,45.0,45.4,46.6,48.3,44.9,87,89,85,0.901,42.8,44.0,41.5,2.872,2.9,241,31,4.4,-0.00033,-0.00029,53.4,52.0,48,16,0,0.0,8.18,0.00,0.00
15min,AgWx,bigpiney,439,29JUL2020:05:45:00,47.3,12.53,47.7,47.3,45.7,47.3,44.5,89,90,87,0.962,42.5,43.7,41.4,2.368,1.8,227,26,3.4,-0.00026,-0.00024,53.4,52.0,48,38,0,0.0,8.18,0.00,0.00
15min,AgWx,bigpiney,439,29JUL2020:06:00:00,47.7,12.55,51.0,50.7,49.4,50.7,47.4,83,87,81,1.020,44.5,45.1,43.6,6.029,5.6,257,13,8.7,0.00013,0.00027,53.3,52.0,48,82,0,0.0,8.18,0.00,0.00
15min,AgWx,bigpiney,439,29JUL2020:06:15:00,49.0,12.56,51.0,51.1,51.1,51.5,50.7,82,86,81,1.092,45.9,46.9,45.1,1.535,3.8,279,63,7.7,0.00028,0.00040,53.3,52.0,48,118,0,0.0,8.18,0.00,0.00
15min,AgWx,bigpiney,439,29JUL2020:06:30:00,50.6,12.59,56.6,56.3,52.4,56.3,51.0,83,86,71,1.102,47.3,48.2,46.9,4.165,1.2,5.9,53,5.3,0.00044,0.00051,53.2,52.0,48,158,0,0.0,8.18,0.00,0.00
15min,AgWx,bigpiney,439,29JUL2020:06:45:00,52.7,12.61,58.1,58.1,57.5,58.1,56.4,67,71,65,1.092,46.8,47.3,46.3,7.212,6.4,302,15,9.8,0.00105,0.00145,53.1,52.0,48,201,0,0.0,8.18,0.00,0.00
15min,AgWx,bigpiney,439,29JUL2020:07:00:00,55.0,12.65,59.7,59.6,58.9,59.7,58.0,64,67,61,1.063,46.8,47.5,46.0,11.14,8.3,311,11,11.9,0.00147,0.00202,53.1,51.9,48,246,0,0.0,8.18,0.00,0.00
15min,AgWx,bigpiney,439,29JUL2020:07:15:00,57.3,12.71,61.0,61.1,60.3,61.2,59.6,60,63,57,1.079,46.6,47.7,45.5,6.993,8.2,312,12,12.1,0.00183,0.00247,53.1,51.9,48,293,0,0.0,8.18,0.00,0.00
15min,AgWx,bigpiney,439,29JUL2020:07:30:00,59.5,12.91,62.4,62.3,61.7,62.3,61.1,57,60,54,1.042,46.5,47.4,45.7,10.28,8.1,316,15,11.7,0.00218,0.00288,53.0,51.9,48,343,0,0.0,8.18,0.00,0.00
15min,AgWx,bigpiney,439,29JUL2020:07:45:00,61.2,13.27,63.5,63.5,62.9,63.5,62.3,54,57,51,1.072,46.2,47.5,45.2,8.42,8.2,326,19,12.9,0.00255,0.00333,53.0,51.9,48,391,0,0.0,8.18,0.00,0.00
15min,AgWx,bigpiney,439,29JUL2020:08:00:00,62.8,13.5,64.1,64.1,63.8,64.1,63.4,52,55,50,1.011,45.8,47.3,44.8,10.72,9.7,326,15,13.1,0.00298,0.00392,52.9,51.8,48,439,0,0.0,8.18,0.00,0.00
15min,AgWx,bigpiney,439,29JUL2020:08:15:00,64.3,13.65,65.3,65.2,64.7,65.2,64.1,51,53,49,1.115,46.2,47.5,45.0,7.695,9.2,329,23,12.6,0.00328,0.00424,52.9,51.9,48,487,0,0.0,8.18,0.00,0.00
15min,AgWx,bigpiney,439,29JUL2020:08:30:00,65.8,14.08,64.8,64.7,65.1,65.5,64.4,51,53,48,1.036,46.3,47.6,45.1,9.36,10.6,328,13,19.0,0.00354,0.00461,52.8,51.9,48,512,0,0.0,8.18,0.00,0.00